Zurück zum Katalog

STARLINK-11141

AktivKommunikationVLEO
NORAD 60066·PAYLOAD·🇺🇸 United States

Gestartet Jun 19, 2024 von Vandenberg Space Force Base

Loading…

Nächste Überflüge (nächste 24 Stunden)

TLE

AktuellSource: CelesTrak SupGP

Epoche: Sep 14, 2026, 22:24 UTC

1 60066C 24113H   26257.93381944 -.00068895  00000+0 -56743-3 0  2574
2 60066  53.1570 338.0389 0001072  87.5681  61.3420 15.69747431    14

Verfolge STARLINK-11141 in Echtzeit mit AllMySat

Download on the App Store